CZ-6A DEB, 60628

Orbit data source: Space-Track

CZ-6A DEB, 60628 is space debris in LEO originally from a launch on Tue, 06 Aug 2024 UTC launched from the Taiyaun Space Center, China (TSC). Debris objects in space refer to the collection of defunct objects orbiting the Earth. Examples of debris include non-operational satellites, rocket bodies, and fragments generated from explosions, collisions, or faulty payload assembly.

Loading next visibility...
Identifier
60628, 2024-140AD
Orbit
LEO
Country
Flag of CNCN / PRC
Related business
Manufacturer
SAST
Mission
Spacecraft
Bus & Motor
Unknown
Mass
Unknown
Launch date (UTC)
2024-08-06 (2 years ago)
Launch vehicle
Unknown
Launch site
Taiyaun Space Center, China (TSC)
Object type
Payload
Rocket body
Debris
Shape & HBR
Unknown shape, 0.3 m
Radar Cross Section
Medium (>0.1 m² and <1 m²)

Expand to show TLE details & history
Last TLE update: 14 hours ago

TLE from 14 hours ago
0 CZ-6A DEB
1 60628U 24140AD  26171.28426088  .00000346  00000-0  12915-3 0  9992
2 60628  88.8370 259.7336 0004022 199.6948 160.4092 14.29635853 97315
Epoch: 2026-06-20T06:49Z
TLE epoch observation values (Epoch: 2026-06-20T06:49:20.140Z)
Latitude
-0.00007°
Longitude
-111.10141°
Altitude
798.732 km
Speed
7.453 km/s
True Right ascension
17h 18m 56s
True Declination
0° 00' 00"
Sunlit
Object was in full shadow at epoch
Visualization orbit readout
Latitude
Unknown
Longitude
Unknown
Altitude
Unknown
Speed
Unknown
Apparent Right ascension
Unknown
Apparent Declination
Unknown
Sunlit
N/A
Visualization observer readout
Local Sidereal Time
07:21:15
Azimuth
Unknown
Elevation
Unknown
Doppler factor
Unknown
Orbital elements
Apogee altitude
792.77 km
Perigee altitude
787.004 km
Semi-major axis
7,168.024 km
Eccentricity
0.0004
Inclination
88.837°
RAAN
259.7336°
Arg. of periapsis
199.6948°
True anomaly
160.42465°
Mean anomaly
160.4092°
Eccentric anomaly
160.41692°
Mean motion
3.57638 °/min
Orbital period
100.66 mins
BSTAR
0.00012915
Loading maneuver chart data...
Computing Atmospheric mass density...
Loading historical data...
Loading historical data...
Loading historical data...
Loading historical data...
Loading historical data...
Loading historical data...
Loading historical data...

Documentation

Showing up to 5 results
|